Regional Weather Roundup
Issued by NWS Upton, NY

Current Version | Previous Version | Graphics & Text | Print | Product List | Glossary Off
Versions: 1 2 3 4 5 6 7 8 9 10 11 12 13 14 15 16 17 18 19 20 21 22 23 24 25 26 27

000
ASUS41 KOKX 191408
RWROKX

Regional Weather Roundup
National Weather Service New York NY
900 AM EST FRI JAN 19 2018

Note: "FAIR" indicates few or no clouds below 12,000 feet with no
significant weather and/or obstructions to visibility.

NYZ071-072-176-178-NJZ106-104-191500-
New York City Metro Area

CITY           SKY/WX    TMP DP  RH WIND       PRES   REMARKS
Central Park   FAIR      30  13  49 VRB5      30.09R WCI  25
Bronx Bot Gard   N/A     32  14  47 W10       30.07S WCI  24
Bronx Lehman C   N/A     32  14  47 W7          N/A  WCI  26
LaGuardia Arpt PTSUNNY   32  12  43 W15G23    30.08R WCI  22
Queens College   N/A     32  14  47 W12         N/A  WCI  23
Kennedy Intl   PTSUNNY   30  18  60 SW13      30.10R WCI  20
Breezy Point     N/A    N/A N/A N/A W9          N/A
Brooklyn Coll    N/A     32  16  51 W6          N/A  WCI  26
Staten Island    N/A     27  18  69 SW5         N/A  WCI  21
Newark/Liberty PTSUNNY   28  14  55 SW9       30.09R WCI  19
Teterboro      FAIR      30  14  51 W8        30.07R WCI  22
$$

NYZ177-179-078>081-191500-
Long Island New York

CITY           SKY/WX    TMP DP  RH WIND       PRES   REMARKS
Jones Beach      N/A    N/A N/A N/A W13         N/A
Wantagh          N/A     32  18  55 W10         N/A  WCI  24
Matinecock Pt    N/A    N/A N/A N/A W18         N/A
Farmingdale    FAIR      29  16  58 W10       30.08R WCI  20
MacArthur/ISP  PTSUNNY   29  18  63 W8        30.06R WCI  21
Shirley          N/A    N/A N/A N/A MISG      30.07R
Mt Sinai Harb    N/A    N/A N/A N/A SW2         N/A
Westhampton    FAIR      24  17  74 W5        30.08R WCI  18
East Hampton   FAIR      26  17  68 W7        30.06R WCI  19
Southold         N/A     30  21  69 W5          N/A  WCI  25
Montauk          N/A     31  21  66 W9        30.05R WCI  23
$$

NYZ052-065-067-191500-
Hudson Valley

CITY           SKY/WX    TMP DP  RH WIND       PRES   REMARKS
White Plains   FAIR      25  13  60 W5        30.03R WCI  19
Larchmont Harb   N/A    N/A N/A N/A SW10        N/A
Croton On Huds   N/A    N/A N/A N/A SE2         N/A
Somers           N/A     21  14  73 SW2         N/A
Brewster         N/A     18  14  86 S2          N/A
Newburgh       PTSUNNY   14  12  92 CALM      30.04R
Montgomery     FAIR      15   9  76 SW9       30.02S WCI   3
Otisville        N/A     16  10  79 S6          N/A  WCI   7
Warwick          N/A     10   7  85 E2          N/A
Suffern          N/A     25  14  63 SW3         N/A
Poughkeepsie   FAIR      20  13  74 S3        30.04R
Albany         FAIR      19  12  74 S6        30.02R WCI  11
$$

NJZ001-105-106-008-010-013-015-019>022-104-191500-
New Jersey

CITY           SKY/WX    TMP DP  RH WIND       PRES   REMARKS
Newark/Liberty PTSUNNY   28  14  55 SW9       30.09R WCI  19
Teterboro      FAIR      30  14  51 W8        30.07R WCI  22
Caldwell       FAIR      23  16  74 CALM      30.08R
Somerville     FAIR      15  13  91 CALM      30.08R
Linden         FAIR      27  14  58 W3        30.10R
Perth Amboy      N/A    N/A N/A N/A W7          N/A
Sussex         FAIR       5   1  83 CALM      30.04R
Andover          N/A      8   7  95 CALM      30.05R
Trenton        FAIR      24  17  74 SW5       30.09R HAZE    WCI  18
Millville      FAIR      30  22  72 W5        30.12S WCI  25
Atlantic City  FAIR      35  19  52 W10       30.11S WCI  27
Wrightstown    FAIR      28  17  63 W7        30.08R WCI  21
Toms River     FAIR      30  23  75 W6        30.11S WCI  24
Belmar         FAIR      24  16  71 SW6       30.11R WCI  17
$$

PAZ047>061-062-071-191500-
Eastern Pennsylvania

CITY           SKY/WX    TMP DP  RH WIND       PRES   REMARKS
Philadelphia   PTSUNNY   30  19  63 W8        30.12R WCI  22
Allentown      FAIR      16  12  84 CALM      30.07R
Scranton       FAIR      21  11  65 W7        30.03R WCI  12
$$

CTZ002-004>006-009-010-012-RIZ004-006-007-MAZ004-011-015-191500-
Southern New England

 In CT

CITY           SKY/WX    TMP DP  RH WIND       PRES   REMARKS
Bradley Intl   PTSUNNY   23  15  71 SW7       30.03R WCI  15
Hartford       FAIR      23  13  65 W7        30.05R WCI  15
Danbury        FAIR      20  14  77 CALM      30.05R
Wtrbury/Oxford FAIR      20  13  74 W6        30.02R WCI  12
Norwalk Harbor   N/A    N/A N/A N/A W8          N/A
Bridgeport     FAIR      26  15  63 W6        30.07R WCI  19
Meriden        FAIR      21  16  81 CALM      30.05R
New Haven      FAIR      25  15  66 VRB5      30.06R WCI  19
Chester        FAIR      25  14  63 W6        30.02R WCI  18
Groton         FAIR      27  13  55 W13       30.04R WCI  16
Willimantic    FAIR      23  14  68 W8        30.02S WCI  14

 In RI

CITY           SKY/WX    TMP DP  RH WIND       PRES   REMARKS
Providence     PTSUNNY   25  17  72 W12       30.02R WCI  14
Block Island   FAIR      30  21  69 W17G23    30.03R WCI  18
Westerly       FAIR      28  16  60 VRB5      30.04R WCI  23

In MA

CITY           SKY/WX    TMP DP  RH WIND       PRES   REMARKS
Boston         PTSUNNY   27  18  69 W8        29.98R WCI  19
Worcester      PTSUNNY   19  12  74 W14       29.93R WCI   6
Westfield      FAIR      18  14  84 S5        30.01R WCI  11
Provincetown   FAIR      29  22  75 W12       29.99  WCI  19
Nantucket      FAIR      28  21  75 W15       30.01R WCI  16
$$

ANZ330-335-338-340-345-350-353-355-191500-
Coastal Marine Observations


STATION/POSITION TIME  SKY/WX   TEMP    WIND        PRES    VSBY  WAVE
                                AIR SEA DIR/SP/G                  HT/PER
                 (UTC)          (F)     (DEG/KT/KT) (MB)    (MI)  (FT/S)
NY Harb Entrance 1250            33 40  260/ 16/ 17 1018.0          2/ 3
20 S Fire Island 1250            35 42  270/ 17/ 23 1018.0          4/ 5
15 E Barnegat Li 1330               43                N/A           2/10
Hudson Canyon    1250            38 49  290/ 19/ 21 1018.3          6/ 6
Kings Point      1342            31 31  310/ 11/ 16 1019.3
Execution Rocks  NOT AVBL
Western LI Sound NOT AVBL
Central LI Sound NOT AVBL
Robbins Reef     1342            27     250/ 11/ 12 1019.3
$$


>>>>>>>>>>>>>>>>>>>>>>>>>>>> KEY <<<<<<<<<<<<<<<<<<<<<<<<<<<
>                                                          <
>     SKY/WX - Sky Condition/Present Weather               <
>     TMP    - Temperature in Fahrenheit                   <
>     DP     - Dew Point in Fahrenheit                     <
>     RH     - Relative Humidity in Percent                <
>     WIND   - Direction (from) and Speed in MPH           <
>     PRES   - Mean Sea Level Pressure (inches of Hg)      <
>     WCI    - Wind Chill Index                            <
>     VSB    - Visibility in Miles                         <
>     HX     - Heat Index                                  <
>     TC     - Temperature in Celsius                      <
>     VRB    - Varibale Wind Direction                     <
>                                                          <
>>>>>>>>>>>>>>>>>>>>>>>>>>>> KEY <<<<<<<<<<<<<<<<<<<<<<<<<<<




USA.gov is the U.S. government's official web portal to all federal, state and local government web resources and services.